VTD873 UWSK-UWSK

Flight info

Callsign VTD873
Flight time 0h 5m
Altitude 3500
Route RA/A035
Aircraft DA40/L-SDFGY/C

Departure

Time 2026-04-26 11:23
Airport Krasny Kut Airport (UWSK)

Arrival

Time 2026-04-26 11:28
Airport Krasny Kut Airport (UWSK)
Time Latitude Longitude Altitude Speed Heading
2026-04-26 10:44 50.95540 46.94404 162 ft 0 kts 178°
2026-04-26 11:12 50.95530 46.94408 163 ft 4 kts 139°
2026-04-26 11:12 50.95531 46.94422 163 ft 0 kts 54°
2026-04-26 11:12 50.95552 46.94421 162 ft 1 kts 333°
2026-04-26 11:12 50.95585 46.94375 161 ft 7 kts 316°
2026-04-26 11:13 50.95609 46.94355 160 ft 1 kts 346°
2026-04-26 11:13 50.95644 46.94376 160 ft 10 kts 30°
2026-04-26 11:13 50.95704 46.94430 161 ft 7 kts 30°
2026-04-26 11:13 50.95726 46.94450 162 ft 0 kts 28°
2026-04-26 11:14 50.95762 46.94482 164 ft 10 kts 28°
2026-04-26 11:14 50.95815 46.94528 165 ft 7 kts 29°
2026-04-26 11:14 50.95839 46.94548 166 ft 5 kts 28°
2026-04-26 11:15 50.95888 46.94589 166 ft 7 kts 28°
2026-04-26 11:15 50.95933 46.94627 168 ft 6 kts 28°
2026-04-26 11:15 50.95974 46.94661 170 ft 8 kts 26°
2026-04-26 11:15 50.96032 46.94708 170 ft 10 kts 27°
2026-04-26 11:16 50.96083 46.94751 170 ft 7 kts 29°
2026-04-26 11:16 50.96130 46.94791 170 ft 9 kts 28°
2026-04-26 11:16 50.96188 46.94838 171 ft 9 kts 26°
2026-04-26 11:16 50.96243 46.94878 171 ft 9 kts 26°
2026-04-26 11:17 50.96294 46.94921 170 ft 8 kts 26°
2026-04-26 11:17 50.96340 46.94956 172 ft 8 kts 26°
2026-04-26 11:17 50.96375 46.94980 173 ft 6 kts 20°
2026-04-26 11:17 50.96400 46.94982 173 ft 2 kts 302°
2026-04-26 11:18 50.96412 46.94963 174 ft 3 kts 320°
2026-04-26 11:18 50.96415 46.94948 175 ft 0 kts 285°
2026-04-26 11:21 50.96420 46.94912 172 ft 4 kts 257°
2026-04-26 11:21 50.96417 46.94905 172 ft 0 kts 210°
2026-04-26 11:22 50.96297 46.94801 175 ft 42 kts 207°
2026-04-26 11:22 50.96020 46.94538 329 ft 52 kts 211°
2026-04-26 11:22 50.95685 46.94242 534 ft 58 kts 209°
2026-04-26 11:22 50.95299 46.93952 724 ft 66 kts 206°
2026-04-26 11:23 50.94871 46.93666 959 ft 68 kts 220°
2026-04-26 11:23 50.94811 46.92988 1179 ft 77 kts 294°
2026-04-26 11:23 50.95084 46.92211 1221 ft 82 kts 294°
2026-04-26 11:23 50.95360 46.91425 1174 ft 82 kts 294°
2026-04-26 11:24 50.95718 46.90713 1157 ft 91 kts 323°
2026-04-26 11:24 50.96405 46.90784 1135 ft 116 kts 21°
2026-04-26 11:24 50.97117 46.91465 1099 ft 121 kts 24°
2026-04-26 11:24 50.97821 46.92151 1225 ft 116 kts 24°
2026-04-26 11:25 50.98488 46.92791 1238 ft 108 kts 20°
2026-04-26 11:25 50.99125 46.93365 1272 ft 103 kts 17°
2026-04-26 11:25 50.99733 46.94013 1286 ft 112 kts 50°
2026-04-26 11:25 50.99839 46.95216 1173 ft 111 kts 113°
2026-04-26 11:26 50.99528 46.96273 1063 ft 104 kts 131°
2026-04-26 11:26 50.99068 46.96974 946 ft 80 kts 184°
2026-04-26 11:26 50.98589 46.96667 782 ft 76 kts 217°
2026-04-26 11:26 50.98141 46.96279 631 ft 70 kts 212°
2026-04-26 11:27 50.97714 46.95928 458 ft 69 kts 210°
2026-04-26 11:27 50.97301 46.95591 334 ft 64 kts 208°
2026-04-26 11:27 50.96903 46.95276 257 ft 65 kts 206°
2026-04-26 11:27 50.96515 46.94970 196 ft 60 kts 205°
2026-04-26 11:28 50.96219 46.94737 178 ft 38 kts 207°
2026-04-26 11:28 50.95919 46.94481 257 ft 60 kts 205°
2026-04-26 11:28 50.95507 46.94162 439 ft 64 kts 208°
2026-04-26 11:28 50.95113 46.93834 656 ft 69 kts 207°
2026-04-26 11:29 50.94645 46.93498 837 ft 78 kts 208°
2026-04-26 11:29 50.94137 46.93113 1040 ft 80 kts 227°
2026-04-26 11:29 50.94060 46.92274 1188 ft 89 kts 291°
2026-04-26 11:29 50.94359 46.91407 1192 ft 90 kts 294°
2026-04-26 11:30 50.94662 46.90553 1190 ft 88 kts 293°
2026-04-26 11:30 50.94867 46.89998 1174 ft 88 kts 292°
2026-04-26 11:30 50.95698 46.89667 1176 ft 110 kts 15°
2026-04-26 11:30 50.96391 46.90270 1186 ft 116 kts 23°
2026-04-26 11:31 50.97102 46.90914 1160 ft 120 kts 23°
2026-04-26 11:31 50.97822 46.91565 1276 ft 114 kts 22°
2026-04-26 11:31 50.98511 46.92171 1211 ft 112 kts 19°
2026-04-26 11:31 50.99190 46.92710 1185 ft 108 kts 16°
2026-04-26 11:32 50.99853 46.93323 1175 ft 114 kts 44°
2026-04-26 11:32 51.00046 46.94477 1180 ft 108 kts 106°
2026-04-26 11:32 50.99748 46.95525 1150 ft 103 kts 128°
2026-04-26 11:32 50.99359 46.96449 1096 ft 90 kts 152°
2026-04-26 11:33 50.98832 46.96627 982 ft 76 kts 195°
2026-04-26 11:33 50.98334 46.96411 821 ft 71 kts 210°
2026-04-26 11:33 50.97914 46.96098 665 ft 67 kts 214°
2026-04-26 11:33 50.97499 46.95755 533 ft 67 kts 211°
2026-04-26 11:34 50.97096 46.95428 374 ft 63 kts 208°
2026-04-26 11:34 50.96696 46.95109 246 ft 62 kts 207°
2026-04-26 11:34 50.96338 46.94830 175 ft 47 kts 206°
2026-04-26 11:34 50.96058 46.94610 184 ft 56 kts 205°
2026-04-26 11:35 50.95649 46.94288 273 ft 73 kts 206°
2026-04-26 11:35 50.95214 46.93934 512 ft 69 kts 208°
2026-04-26 11:35 50.94790 46.93578 744 ft 71 kts 210°
2026-04-26 11:35 50.94324 46.93237 963 ft 76 kts 207°
2026-04-26 11:36 50.93825 46.92905 1186 ft 80 kts 211°
2026-04-26 11:36 50.93304 46.92519 1400 ft 84 kts 212°
2026-04-26 11:36 50.92787 46.92028 1535 ft 91 kts 219°
2026-04-26 11:36 50.92400 46.91282 1681 ft 91 kts 261°
2026-04-26 11:37 50.92733 46.90397 1894 ft 104 kts 316°
2026-04-26 11:37 50.93288 46.89715 2083 ft 99 kts 304°
2026-04-26 11:37 50.93776 46.88923 2296 ft 101 kts 304°
2026-04-26 11:37 50.94278 46.88149 2516 ft 102 kts 306°
2026-04-26 11:38 50.94781 46.87341 2606 ft 102 kts 304°
2026-04-26 11:38 50.95274 46.86523 2747 ft 104 kts 303°
2026-04-26 11:38 50.95773 46.85708 2976 ft 102 kts 304°
2026-04-26 11:38 50.96262 46.84917 3187 ft 100 kts 303°
2026-04-26 11:39 50.96748 46.84128 3347 ft 100 kts 304°
2026-04-26 11:39 50.97152 46.83268 3468 ft 94 kts 278°
2026-04-26 11:39 50.97149 46.82250 3514 ft 94 kts 261°
2026-04-26 11:39 50.97202 46.81207 3481 ft 105 kts 291°
2026-04-26 11:40 50.97838 46.80526 3514 ft 118 kts 330°
2026-04-26 11:40 50.98578 46.80004 3526 ft 117 kts 322°
2026-04-26 11:40 50.99319 46.79428 3531 ft 118 kts 325°
2026-04-26 11:40 51.00091 46.78960 3489 ft 120 kts 330°
2026-04-26 11:41 51.00890 46.78557 3442 ft 122 kts 333°
2026-04-26 11:42 51.06247 46.75279 3438 ft 113 kts 323°
2026-04-26 11:43 51.06957 46.74705 3439 ft 115 kts 321°
2026-04-26 11:43 51.07645 46.74062 3473 ft 112 kts 316°
2026-04-26 11:43 51.08260 46.73325 3431 ft 108 kts 302°
2026-04-26 11:43 51.08463 46.72335 3487 ft 92 kts 253°
2026-04-26 11:44 51.08195 46.71426 3467 ft 93 kts 242°
2026-04-26 11:44 51.07923 46.70476 3472 ft 96 kts 247°
2026-04-26 11:44 51.07681 46.69507 3450 ft 93 kts 247°
2026-04-26 11:44 51.07441 46.68555 3407 ft 93 kts 243°
2026-04-26 11:45 51.07165 46.67655 3471 ft 89 kts 243°
2026-04-26 11:45 51.06894 46.66756 3542 ft 91 kts 243°
2026-04-26 11:45 51.06609 46.65834 3552 ft 98 kts 244°
2026-04-26 11:45 51.06318 46.64839 3539 ft 99 kts 244°
2026-04-26 11:46 51.06041 46.63831 3526 ft 99 kts 244°
2026-04-26 11:46 51.05754 46.62848 3548 ft 98 kts 244°
2026-04-26 11:46 51.05471 46.61829 3489 ft 106 kts 244°
2026-04-26 11:46 51.05175 46.60741 3444 ft 108 kts 245°
2026-04-26 11:47 51.04879 46.59655 3482 ft 107 kts 245°
2026-04-26 11:47 51.04588 46.58555 3467 ft 108 kts 246°
2026-04-26 11:47 51.04307 46.57486 3555 ft 104 kts 245°
2026-04-26 11:47 51.04055 46.56415 3601 ft 105 kts 250°
2026-04-26 11:48 51.03841 46.55274 3572 ft 110 kts 249°
2026-04-26 11:48 51.03625 46.54114 3583 ft 108 kts 250°
2026-04-26 11:48 51.03433 46.52962 3561 ft 107 kts 253°
2026-04-26 11:48 51.03282 46.51836 3529 ft 104 kts 253°
2026-04-26 11:49 51.03162 46.50673 3455 ft 106 kts 260°
2026-04-26 11:49 51.03102 46.49512 3455 ft 106 kts 258°
2026-04-26 11:49 51.03043 46.48363 3445 ft 104 kts 260°
2026-04-26 11:49 51.02943 46.47253 3466 ft 101 kts 256°
2026-04-26 11:50 51.02868 46.46137 3463 ft 100 kts 258°
2026-04-26 11:50 51.02818 46.45050 3481 ft 97 kts 260°
2026-04-26 11:50 51.02833 46.43982 3455 ft 98 kts 264°
2026-04-26 11:50 51.02837 46.42912 3444 ft 97 kts 260°
2026-04-26 11:51 51.02786 46.41846 3379 ft 98 kts 257°
2026-04-26 11:51 51.02744 46.40770 3351 ft 97 kts 258°
2026-04-26 11:51 51.02699 46.39726 3439 ft 90 kts 259°
2026-04-26 11:51 51.02680 46.38738 3488 ft 91 kts 262°
2026-04-26 11:52 51.02762 46.37695 3515 ft 98 kts 269°
2026-04-26 11:52 51.02840 46.36986 3515 ft 99 kts 269°
2026-04-26 11:52 51.03009 46.35535 3510 ft 100 kts 270°
2026-04-26 11:52 51.03125 46.34457 3559 ft 98 kts 269°
2026-04-26 11:53 51.03241 46.33362 3521 ft 104 kts 270°
2026-04-26 11:53 51.03377 46.32220 3490 ft 107 kts 271°
2026-04-26 11:53 51.03527 46.31059 3462 ft 108 kts 271°
2026-04-26 11:54 51.03815 46.28688 3438 ft 105 kts 270°
2026-04-26 11:54 51.03982 46.27571 3495 ft 104 kts 275°
2026-04-26 11:54 51.04174 46.26458 3556 ft 105 kts 274°
2026-04-26 11:54 51.04343 46.25318 3500 ft 107 kts 274°
2026-04-26 11:55 51.04474 46.24151 3411 ft 107 kts 264°
2026-04-26 11:55 51.04407 46.22975 3327 ft 105 kts 251°
2026-04-26 11:55 51.04123 46.21996 3497 ft 93 kts 230°
2026-04-26 11:55 51.03692 46.21214 3436 ft 95 kts 226°
2026-04-26 11:56 51.03215 46.20482 3408 ft 94 kts 219°
2026-04-26 11:56 51.02707 46.19845 3451 ft 93 kts 218°
2026-04-26 11:56 51.02179 46.19222 3407 ft 96 kts 216°
2026-04-26 11:56 51.01643 46.18616 3397 ft 93 kts 216°
2026-04-26 11:57 51.01147 46.17994 3401 ft 89 kts 219°
2026-04-26 11:57 51.00678 46.17372 3436 ft 87 kts 220°
2026-04-26 11:57 51.00214 46.16763 3489 ft 86 kts 218°
2026-04-26 11:57 50.99745 46.16168 3453 ft 88 kts 216°
2026-04-26 11:58 50.99241 46.15590 3411 ft 90 kts 214°
2026-04-26 11:58 50.98720 46.15045 3427 ft 90 kts 212°
2026-04-26 11:58 50.98184 46.14539 3441 ft 89 kts 211°
2026-04-26 11:58 50.97639 46.14070 3455 ft 89 kts 211°
2026-04-26 11:59 50.97108 46.13559 3473 ft 90 kts 212°
2026-04-26 11:59 50.96569 46.13009 3454 ft 95 kts 214°
2026-04-26 11:59 50.96030 46.12392 3406 ft 93 kts 218°
2026-04-26 11:59 50.95529 46.11767 3414 ft 89 kts 218°
2026-04-26 12:00 50.95044 46.11172 3414 ft 87 kts 216°
2026-04-26 12:00 50.94563 46.10624 3450 ft 84 kts 215°
2026-04-26 12:00 50.94086 46.10104 3509 ft 85 kts 213°
2026-04-26 12:00 50.93562 46.09578 3523 ft 91 kts 211°
2026-04-26 12:01 50.92990 46.09047 3478 ft 98 kts 209°
2026-04-26 12:01 50.92323 46.09076 3455 ft 107 kts 158°
2026-04-26 12:01 50.91721 46.09741 3465 ft 105 kts 157°
2026-04-26 12:01 50.91110 46.10372 3436 ft 105 kts 158°
2026-04-26 12:02 50.90507 46.10975 3429 ft 104 kts 158°
2026-04-26 12:02 50.90101 46.11404 3411 ft 105 kts 157°
2026-04-26 12:02 50.89278 46.12251 3391 ft 104 kts 157°
2026-04-26 12:02 50.88693 46.12891 3405 ft 103 kts 156°
2026-04-26 12:03 50.88097 46.13549 3454 ft 103 kts 156°
2026-04-26 12:03 50.87505 46.14183 3451 ft 106 kts 158°
2026-04-26 12:03 50.86875 46.14820 3436 ft 108 kts 156°
2026-04-26 12:03 50.86258 46.15473 3438 ft 107 kts 157°
2026-04-26 12:04 50.85600 46.16089 3360 ft 111 kts 161°
2026-04-26 12:04 50.84946 46.16710 3420 ft 108 kts 160°
2026-04-26 12:04 50.84295 46.17296 3420 ft 108 kts 159°
2026-04-26 12:04 50.83664 46.17942 3441 ft 110 kts 156°
2026-04-26 12:05 50.83030 46.18619 3392 ft 109 kts 157°
2026-04-26 12:05 50.82361 46.19088 3335 ft 103 kts 180°
2026-04-26 12:05 50.81732 46.18780 3437 ft 92 kts 224°
2026-04-26 12:05 50.81455 46.17873 3535 ft 96 kts 245°
2026-04-26 12:06 50.81257 46.16827 3524 ft 102 kts 245°
2026-04-26 12:06 50.81024 46.15727 3474 ft 107 kts 243°
2026-04-26 12:06 50.80840 46.15006 3469 ft 104 kts 239°
2026-04-26 12:06 50.80549 46.13977 3515 ft 101 kts 239°
2026-04-26 12:07 50.80277 46.12980 3510 ft 102 kts 242°
2026-04-26 12:07 50.80050 46.11920 3486 ft 102 kts 244°
2026-04-26 12:07 50.79818 46.10884 3496 ft 99 kts 241°
2026-04-26 12:07 50.79543 46.09883 3469 ft 100 kts 238°
2026-04-26 12:08 50.79170 46.08960 3454 ft 100 kts 230°
2026-04-26 12:08 50.78751 46.08066 3417 ft 102 kts 230°
2026-04-26 12:08 50.78353 46.07132 3505 ft 102 kts 232°
2026-04-26 12:08 50.77915 46.06225 3529 ft 106 kts 221°
2026-04-26 12:09 50.77219 46.05858 3488 ft 113 kts 179°
2026-04-26 12:09 50.76503 46.06419 3436 ft 115 kts 157°
2026-04-26 12:09 50.75837 46.07045 3436 ft 108 kts 160°
2026-04-26 12:09 50.75185 46.07631 3417 ft 109 kts 159°
2026-04-26 12:10 50.74547 46.08260 3412 ft 108 kts 158°
2026-04-26 12:10 50.73909 46.08864 3411 ft 102 kts 158°
2026-04-26 12:10 50.73320 46.09465 3467 ft 100 kts 157°
2026-04-26 12:10 50.72726 46.10058 3462 ft 103 kts 158°
2026-04-26 12:11 50.72106 46.10636 3406 ft 103 kts 159°
2026-04-26 12:11 50.71498 46.11211 3419 ft 101 kts 159°
2026-04-26 12:11 50.70885 46.11775 3422 ft 104 kts 159°
2026-04-26 12:11 50.70250 46.12359 3363 ft 106 kts 159°
2026-04-26 12:12 50.69636 46.12921 3439 ft 99 kts 159°
2026-04-26 12:12 50.69076 46.13565 3469 ft 102 kts 151°
2026-04-26 12:12 50.68520 46.14312 3431 ft 107 kts 150°
2026-04-26 12:12 50.68147 46.14821 3433 ft 108 kts 150°
2026-04-26 12:13 50.67388 46.15803 3407 ft 103 kts 152°
2026-04-26 12:13 50.66851 46.16530 3459 ft 104 kts 147°
2026-04-26 12:13 50.66332 46.17375 3394 ft 116 kts 131°
2026-04-26 12:13 50.66289 46.18644 3506 ft 125 kts 78°
2026-04-26 12:14 50.66729 46.19893 3474 ft 133 kts 67°
2026-04-26 12:14 50.67189 46.21165 3477 ft 133 kts 67°
2026-04-26 12:14 50.67654 46.22434 3468 ft 134 kts 67°
2026-04-26 12:14 50.68119 46.23702 3444 ft 134 kts 65°
2026-04-26 12:15 50.68602 46.24959 3398 ft 132 kts 64°
2026-04-26 12:15 50.69093 46.26152 3420 ft 130 kts 62°
2026-04-26 12:15 50.69600 46.27342 3447 ft 131 kts 62°
2026-04-26 12:15 50.70093 46.28567 3467 ft 134 kts 65°
2026-04-26 12:16 50.70571 46.29831 3453 ft 134 kts 66°
2026-04-26 12:16 50.71040 46.31103 3428 ft 135 kts 66°
2026-04-26 12:16 50.71500 46.32358 3418 ft 131 kts 64°
2026-04-26 12:16 50.71977 46.33582 3422 ft 131 kts 63°
2026-04-26 12:17 50.72459 46.34806 3402 ft 131 kts 65°
2026-04-26 12:17 50.72921 46.36031 3394 ft 129 kts 66°
2026-04-26 12:17 50.73371 46.37241 3395 ft 128 kts 65°
2026-04-26 12:17 50.73834 46.38426 3433 ft 124 kts 65°
2026-04-26 12:18 50.74271 46.39588 3528 ft 123 kts 66°
2026-04-26 12:18 50.74715 46.40762 3527 ft 126 kts 65°
2026-04-26 12:18 50.75170 46.41953 3528 ft 127 kts 66°
2026-04-26 12:18 50.75615 46.43155 3572 ft 127 kts 66°
2026-04-26 12:19 50.76068 46.44396 3565 ft 133 kts 68°
2026-04-26 12:19 50.76538 46.45676 3538 ft 139 kts 63°
2026-04-26 12:19 50.77054 46.46952 3491 ft 137 kts 65°
2026-04-26 12:19 50.77527 46.48234 3425 ft 136 kts 66°
2026-04-26 12:20 50.78005 46.49520 3448 ft 134 kts 66°
2026-04-26 12:20 50.78479 46.50793 3505 ft 133 kts 67°
2026-04-26 12:20 50.78932 46.52061 3492 ft 134 kts 69°
2026-04-26 12:20 50.79395 46.53330 3525 ft 138 kts 61°
2026-04-26 12:21 50.79939 46.54609 3474 ft 140 kts 63°
2026-04-26 12:21 50.80381 46.55967 3462 ft 139 kts 72°
2026-04-26 12:21 50.80739 46.57359 3474 ft 134 kts 78°
2026-04-26 12:21 50.81050 46.58723 3528 ft 131 kts 77°
2026-04-26 12:22 50.81422 46.60047 3541 ft 132 kts 72°
2026-04-26 12:22 50.81822 46.61358 3491 ft 135 kts 68°
2026-04-26 12:22 50.82286 46.62651 3523 ft 135 kts 64°
2026-04-26 12:22 50.82756 46.63924 3490 ft 134 kts 65°
2026-04-26 12:23 50.83227 46.65194 3468 ft 133 kts 66°
2026-04-26 12:23 50.83690 46.66447 3480 ft 131 kts 66°
2026-04-26 12:23 50.84144 46.67708 3464 ft 133 kts 66°
2026-04-26 12:23 50.84599 46.68991 3470 ft 134 kts 67°
2026-04-26 12:24 50.85039 46.70284 3478 ft 133 kts 67°
2026-04-26 12:24 50.85498 46.71561 3454 ft 133 kts 67°
2026-04-26 12:24 50.85934 46.72812 3484 ft 128 kts 68°
2026-04-26 12:25 50.86774 46.75327 3474 ft 129 kts 68°
2026-04-26 12:25 50.87202 46.76570 3475 ft 129 kts 67°
2026-04-26 12:25 50.87644 46.77817 3481 ft 131 kts 66°
2026-04-26 12:25 50.88094 46.79041 3461 ft 127 kts 64°
2026-04-26 12:26 50.88617 46.80164 3369 ft 128 kts 50°
2026-04-26 12:26 50.89297 46.81077 3295 ft 127 kts 37°
2026-04-26 12:26 50.90050 46.81845 3144 ft 131 kts 32°
2026-04-26 12:26 50.90848 46.82573 3022 ft 133 kts 30°
2026-04-26 12:27 50.91647 46.83323 2893 ft 134 kts 33°
2026-04-26 12:27 50.92435 46.84076 2821 ft 131 kts 32°
2026-04-26 12:27 50.93193 46.84878 2741 ft 131 kts 39°
2026-04-26 12:27 50.93894 46.85789 2479 ft 131 kts 41°
2026-04-26 12:28 50.94601 46.86686 2309 ft 129 kts 40°
2026-04-26 12:28 50.95290 46.87582 2084 ft 129 kts 43°
2026-04-26 12:28 50.95939 46.88532 1810 ft 128 kts 49°
2026-04-26 12:28 50.96561 46.89552 1543 ft 125 kts 51°
2026-04-26 12:29 50.97271 46.90354 1286 ft 126 kts 34°
2026-04-26 12:29 50.98040 46.91064 1195 ft 131 kts 31°
2026-04-26 12:29 50.99543 46.92520 1235 ft 116 kts 34°
2026-04-26 12:30 51.00220 46.93154 1166 ft 113 kts 31°
2026-04-26 12:30 51.00667 46.94060 1193 ft 100 kts 90°
2026-04-26 12:30 51.00527 46.95028 1184 ft 87 kts 134°
2026-04-26 12:31 50.99781 46.96616 1021 ft 88 kts 142°
2026-04-26 12:31 50.99346 46.97252 1001 ft 79 kts 174°
2026-04-26 12:31 50.98871 46.96867 976 ft 81 kts 213°
2026-04-26 12:31 50.98392 46.96462 852 ft 71 kts 205°
2026-04-26 12:32 50.97970 46.96127 661 ft 66 kts 206°
2026-04-26 12:32 50.97570 46.95809 516 ft 63 kts 206°
2026-04-26 12:32 50.96764 46.95170 281 ft 66 kts 207°
2026-04-26 12:33 50.96398 46.94878 175 ft 50 kts 207°
2026-04-26 12:33 50.96157 46.94682 172 ft 29 kts 207°
2026-04-26 12:33 50.96018 46.94571 170 ft 16 kts 207°
2026-04-26 12:33 50.95927 46.94502 166 ft 15 kts 206°
2026-04-26 12:34 50.95837 46.94431 165 ft 14 kts 206°
2026-04-26 12:34 50.95751 46.94363 162 ft 15 kts 206°
2026-04-26 12:34 50.95682 46.94309 161 ft 0 kts 182°
2026-04-26 12:34 50.95671 46.94313 161 ft 3 kts 147°
2026-04-26 12:35 50.95655 46.94347 160 ft 3 kts 117°
2026-04-26 12:35 50.95652 46.94358 160 ft 4 kts 117°
2026-04-26 12:36 50.95625 46.94361 160 ft 5 kts 194°
2026-04-26 12:36 50.95599 46.94369 160 ft 3 kts 136°
2026-04-26 12:36 50.95582 46.94397 161 ft 3 kts 142°
2026-04-26 12:36 50.95570 46.94408 158 ft 0 kts 145°
2026-04-26 12:37 50.95564 46.94413 159 ft 2 kts 124°
2026-04-26 12:37 50.95567 46.94423 162 ft 1 kts
2026-04-26 12:37 50.95568 46.94423 162 ft 0 kts